カタログに戻る

ATLAS 5 CENTAUR DEB

LostHEO
NORAD 46858·DEBRIS·🇺🇸 United States

打ち上げ Oct 17, 2018 から Cape Canaveral Space Force Station

Loading…

次のパス (今後24時間)

TLE

古いSource: Space-Track

元期: Mar 1, 2024, 04:32 UTC

1 46858U 18079DP  24061.18944800 -.00000123  00000-0  00000+0 0  9999
2 46858  11.6771  94.2852 4572660 227.9420  82.9750  1.95418361 23736

AllMySatでATLAS 5 CENTAUR DEBをリアルタイム追跡

Download on the App Store